Delta, CO

1:47 PM MDT on April 23, 2018 (GMT -0600)
Delta

Weather History for KAJZ - July, 2013

Change the Weather History Date:

Sunday, July 21, 2013

  Actual Average (KMTJ) Record (KMTJ)
Temperature  
Mean Temperature 80 °F -  
Max Temperature 98 °F 87 °F 96 °F (1998)
Min Temperature 63 °F 56 °F 53 °F (2000)
Cooling Degree Days 16    
Growing Degree Days 30 (Base 50)    
Moisture  
Dew Point 39 °F    
Average Humidity 27    
Maximum Humidity 53    
Minimum Humidity 8    
Precipitation  
Precipitation 0.00 in - - ()
Sea Level Pressure  
Sea Level Pressure 30.01 in    
Wind  
Wind Speed 6 mph (East)    
Max Wind Speed 16 mph    
Max Gust Speed 24 mph    
Visibility 10 miles    
Events      
Averages and records for this station are not official NWS values.
T = Trace of Precipitation, MM = Missing Value Source: NWS Daily Summary

Daily Weather History Graph

Daily Weather History Graph

Search for Another Location

Airport or City:

Astronomy

Jul. 21, 2013 Rise Set
Actual Time 6:04 AM MDT 8:32 PM MDT
Civil Twilight 5:33 AM MDT 9:02 PM MDT
Nautical Twilight 4:55 AM MDT 9:40 PM MDT
Astronomical Twilight 4:13 AM MDT 10:22 PM MDT
Moon 7:33 PM MDT (7/21) 4:53 AM MDT (7/21)
Length of Visible Light 15h 29m
Length of Day
14h 28m
Waxing Gibbous, 98% of the Moon is Illuminated
Jul 21
Waxing Gibbous
Jul 22
Full
Jul 29
Last Quarter
Aug 6
New
Aug 14
First Quarter

Hourly Weather History & Observations

Time (MDT) Temp. Dew Point Humidity Pressure Visibility Wind Dir Wind Speed Gust Speed Precip Events Conditions
12:15 AM 74.3 °F 41.5 °F 31% 29.99 in 10.0 mi NE 6.9 mph - N/A   Clear
12:35 AM 71.4 °F 45.0 °F 39% 29.99 in 10.0 mi NE 5.8 mph - N/A   Clear
12:55 AM 72.1 °F 41.7 °F 33% 29.99 in 10.0 mi East 6.9 mph - N/A   Clear
1:15 AM 70.2 °F 43.0 °F 37% 29.99 in 10.0 mi East 4.6 mph - N/A   Clear
1:35 AM 69.1 °F 43.3 °F 39% 29.99 in 10.0 mi ENE 5.8 mph - N/A   Clear
1:55 AM 69.4 °F 43.0 °F 38% 29.99 in 10.0 mi ENE 4.6 mph - N/A   Clear
2:15 AM 68.7 °F 43.7 °F 40% 30.00 in 10.0 mi East 6.9 mph - N/A   Clear
2:35 AM 67.5 °F 44.2 °F 43% 30.01 in 10.0 mi SE 3.5 mph - N/A   Clear
2:55 AM 66.2 °F 45.7 °F 48% 30.00 in 10.0 mi NNE 8.1 mph - N/A   Clear
3:15 AM 66.6 °F 45.3 °F 46% 30.01 in 10.0 mi NNE 9.2 mph - N/A   Clear
3:35 AM 66.4 °F 45.0 °F 46% 30.01 in 10.0 mi NNE 9.2 mph - N/A   Clear
3:55 AM 66.9 °F 44.1 °F 44% 30.01 in 10.0 mi NE 4.6 mph - N/A   Clear
4:15 AM 65.7 °F 43.5 °F 45% 30.02 in 10.0 mi ENE 3.5 mph - N/A   Clear
4:35 AM 65.7 °F 44.1 °F 46% 30.02 in 10.0 mi ENE 8.1 mph - N/A   Clear
4:55 AM 66.4 °F 44.1 °F 44% 30.02 in 10.0 mi ENE 5.8 mph - N/A   Clear
5:15 AM 64.4 °F 44.6 °F 49% 30.03 in 10.0 mi NE 4.6 mph - N/A   Clear
5:35 AM 64.2 °F 46.6 °F 53% 30.03 in 10.0 mi NNE 4.6 mph - N/A   Clear
5:55 AM 63.9 °F 45.5 °F 51% 30.04 in 7.0 mi NE 3.5 mph - N/A   Clear
6:15 AM 64.4 °F 44.8 °F 49% 30.04 in 10.0 mi Calm Calm - N/A   Clear
6:35 AM 64.0 °F 45.9 °F 52% 30.05 in 7.0 mi East 4.6 mph - N/A   Clear
6:55 AM 65.8 °F 45.1 °F 47% 30.05 in 7.0 mi NE 4.6 mph - N/A   Clear
7:15 AM 68.0 °F 44.6 °F 43% 30.06 in 7.0 mi East 3.5 mph - N/A   Clear
7:35 AM 68.9 °F 43.9 °F 40% 30.07 in 10.0 mi East 4.6 mph - N/A   Clear
7:55 AM 70.3 °F 41.9 °F 36% 30.08 in 10.0 mi East 9.2 mph - N/A   Clear
8:15 AM 71.2 °F 41.0 °F 33% 30.08 in 10.0 mi East 9.2 mph - N/A   Clear
8:35 AM 73.0 °F 41.7 °F 32% 30.08 in 7.0 mi East 8.1 mph - N/A   Clear
8:55 AM 75.0 °F 42.6 °F 31% 30.08 in 10.0 mi East 6.9 mph - N/A   Clear
9:15 AM 76.6 °F 43.2 °F 30% 30.08 in 7.0 mi East 4.6 mph - N/A   Clear
9:35 AM 79.0 °F 42.3 °F 27% 30.08 in 7.0 mi East 5.8 mph - N/A   Clear
9:55 AM 81.7 °F 41.5 °F 24% 30.08 in 10.0 mi ENE 4.6 mph - N/A   Clear
10:15 AM 82.6 °F 42.1 °F 24% 30.07 in 10.0 mi East 4.6 mph - N/A   Clear
10:35 AM 84.9 °F 42.3 °F 22% 30.07 in 10.0 mi ESE 5.8 mph - N/A   Clear
10:55 AM 84.4 °F 43.2 °F 23% 30.07 in 10.0 mi Calm Calm - N/A   Clear
11:15 AM 86.9 °F 44.2 °F 22% 30.07 in 10.0 mi ESE 5.8 mph - N/A   Clear
12:15 PM 90.0 °F 43.3 °F 20% 30.04 in 10.0 mi SE 4.6 mph - N/A   Clear
12:35 PM 90.7 °F 41.5 °F 18% 30.04 in 10.0 mi SSE 3.5 mph - N/A   Clear
12:55 PM 91.6 °F 41.7 °F 18% 30.02 in 10.0 mi Calm Calm - N/A   Clear
1:15 PM 92.3 °F 39.9 °F 16% 30.02 in 10.0 mi SSE 8.1 mph - N/A   Clear
1:35 PM 92.3 °F 37.4 °F 15% 30.01 in 10.0 mi SSW 5.8 mph - N/A   Clear
1:55 PM 93.9 °F 36.3 °F 13% 30.00 in 10.0 mi Calm Calm - N/A   Clear
2:15 PM 95.5 °F 30.0 °F 10% 29.99 in 10.0 mi SW 8.1 mph - N/A   Clear
2:35 PM 95.4 °F 24.1 °F 8% 29.98 in 10.0 mi Calm Calm - N/A   Clear
2:55 PM 95.4 °F 25.3 °F 8% 29.98 in 10.0 mi SSW 5.8 mph - N/A   Clear
3:15 PM 97.9 °F 26.2 °F 8% 29.98 in 10.0 mi South 4.6 mph - N/A   Clear
3:35 PM 95.5 °F 32.2 °F 11% 29.98 in 10.0 mi South 9.2 mph - N/A   Clear
3:55 PM 98.1 °F 28.2 °F 8% 29.97 in 10.0 mi SSW 9.2 mph - N/A   Clear
4:15 PM 97.9 °F 33.3 °F 10% 29.97 in 10.0 mi SSW 9.2 mph - N/A   Clear
4:35 PM 98.2 °F 31.5 °F 10% 29.96 in 10.0 mi SSW 9.2 mph - N/A   Clear
4:55 PM 98.6 °F 35.6 °F 11% 29.95 in 10.0 mi SW 16.1 mph 23.0 mph N/A   Clear
5:15 PM 97.0 °F 34.0 °F 11% 29.95 in 10.0 mi WSW 12.7 mph - N/A   Clear
5:35 PM 97.5 °F 32.2 °F 10% 29.95 in 10.0 mi WSW 15.0 mph 24.2 mph N/A   Clear
5:55 PM 96.8 °F 30.9 °F 10% 29.95 in 10.0 mi West 10.4 mph - N/A   Clear
6:15 PM 97.0 °F 30.0 °F 9% 29.94 in 10.0 mi WSW 5.8 mph - N/A   Clear
6:35 PM 96.4 °F 30.0 °F 10% 29.94 in 10.0 mi WSW 4.6 mph - N/A   Clear
6:55 PM 95.5 °F 28.0 °F 9% 29.94 in 10.0 mi West 6.9 mph - N/A   Clear
7:15 PM 95.2 °F 29.8 °F 10% 29.94 in 10.0 mi SW 6.9 mph - N/A   Clear
7:35 PM 94.3 °F 31.1 °F 11% 29.94 in 10.0 mi SSW 3.5 mph - N/A   Clear
7:55 PM 93.0 °F 34.2 °F 13% 29.95 in 10.0 mi SSW 4.6 mph - N/A   Clear
8:15 PM 90.3 °F 36.5 °F 15% 29.95 in 10.0 mi Calm Calm - N/A   Clear
8:35 PM 88.7 °F 37.4 °F 16% 29.95 in 10.0 mi Calm Calm - N/A   Clear
8:55 PM 83.5 °F 43.2 °F 24% 29.96 in 10.0 mi North 5.8 mph - N/A   Clear
9:15 PM 82.6 °F 37.8 °F 20% 29.97 in 10.0 mi SW 3.5 mph - N/A   Clear
9:35 PM 82.4 °F 41.7 °F 24% 29.98 in 10.0 mi Calm Calm - N/A   Clear
9:55 PM 80.4 °F 35.6 °F 20% 30.00 in 10.0 mi East 6.9 mph - N/A   Clear
10:15 PM 79.7 °F 37.6 °F 22% 30.01 in 10.0 mi NE 3.5 mph - N/A   Clear
10:35 PM 77.5 °F 38.1 °F 24% 30.01 in 10.0 mi ENE 5.8 mph - N/A   Clear
10:55 PM 79.2 °F 38.7 °F 23% 30.02 in 10.0 mi NNE 4.6 mph - N/A   Clear
11:15 PM 77.0 °F 39.9 °F 26% 30.02 in 10.0 mi ENE 5.8 mph - N/A   Clear
11:35 PM 75.9 °F 39.6 °F 27% 30.02 in 10.0 mi NNE 8.1 mph - N/A   Clear
11:55 PM 73.6 °F 42.4 °F 33% 30.03 in 10.0 mi NNE 6.9 mph - N/A   Clear